Find Starlink 6290

NORAD ID: 57328 Int'l Des: 2023-099 Owner: SPXS Country: US Constellation: starlink operational
LEOCIRCULAR

リアルタイム位置

3D地球を読み込み中...

Starlink 6290について

説明を読み込み中...

次回通過

Passes for default location (London). Set your location on the main map for personalized predictions.

高度履歴

Loading altitude history...

軌道要素

1 57328U 23099A 26110.42921073 -.00000387 00000-0 -45246-5 0 9992
2 57328 43.0041 16.3639 0001239 260.3680 99.7031 15.27573081153374
Epoch: Apr 20, 2026 • Age: 6 hours

現在のステータス

高度 492.3 km
速度 7.62 km/s
衛星直下点 -34.87°S, 153.66°E
打ち上げ日 Jul 16, 2023
運用期間 2.7 years
タイプ internet

技術仕様

分類 Payload
質量 305.00 kg
乾燥質量 290.00 kg
総質量 305.00 kg
長さ 0.20 m
直径 2.80 m
スパン 9.00 m
形状 Box + pan
製造者 SPXS
バスタイプ Starlink
フェーズステータス In Orbit
所有者/国 SPXS/US

Most Searched